FW3258 Weather Reports


time (UTC)temp
C
wind
direction
speed
KPH
gust
KPH
rain 1hr
cm
rain 24hr
cm
rain mn
cm
humidity
%
barometer
mb
20260509211824 17 242 4.8 6.4 0.00 0.00 0.00 53 1007.4
20260509210924 17 247 9.7 12.9 0.00 0.00 0.00 53 1007.3
20260509205925 17 219 14.5 17.7 0.00 0.00 0.00 54 1007.1
20260509204925 17 240 8.0 14.5 0.00 0.00 0.00 55 1007.4
20260509203925 17 225 8.0 11.3 0.00 0.00 0.00 54 1007.6
20260509202924 17 240 8.0 11.3 0.00 0.00 0.00 53 1007.7
20260509202023 18 220 6.4 9.7 0.00 0.00 0.00 54 1007.6
20260509201024 18 202 12.9 16.1 0.00 0.00 0.00 55 1007.7
20260509200025 18 0 3.2 12.9 0.00 0.00 0.00 55 1007.7
20260509195024 17 242 8.0 20.9 0.00 0.00 0.00 55 1007.9
20260509194023 17 240 11.3 14.5 0.00 0.00 0.00 56 1008.2
20260509193024 17 225 8.0 11.3 0.00 0.00 0.00 55 1008.3
20260509192024 17 217 12.9 17.7 0.00 0.00 0.00 55 1008.4
20260509191024 17 236 12.9 17.7 0.00 0.00 0.00 54 1008.5
20260509185024 17 247 6.4 11.3 0.00 0.00 0.00 56 1008.4
20260509183024 16 251 12.9 17.7 0.00 0.00 0.00 61 1008.4
20260509180023 16 299 8.0 11.3 0.00 0.00 0.00 64 1009.1
20260509175026 16 247 6.4 9.7 0.00 0.00 0.00 65 1009.1
20260509174123 15 264 9.7 11.3 0.00 0.00 0.00 63 1009.2
20260509171323 15 244 11.3 14.5 0.00 0.00 0.00 64 1009.3
20260509170325 15 215 9.7 12.9 0.00 0.00 0.00 66 1009.4
20260509165323 15 265 11.3 12.9 0.00 0.00 0.00 66 1009.6
20260509164326 15 270 14.5 16.1 0.00 0.00 0.00 65 1009.4
20260509163325 15 240 11.3 14.5 0.00 0.00 0.00 67 1009.6
20260509162423 15 270 9.7 14.5 0.00 0.00 0.00 68 1009.6
20260509161427 14 236 8.0 11.3 0.00 0.00 0.00 69 1009.9
20260509160524 14 236 8.0 9.7 0.00 0.00 0.00 70 1010.0
20260509155524 13 270 6.4 8.0 0.00 0.00 0.00 71 1010.1
20260509154523 13 270 12.9 17.7 0.00 0.00 0.00 72 1010.2
20260509153525 13 292 9.7 11.3 0.00 0.00 0.00 72 1010.2
20260509152524 13 247 9.7 11.3 0.00 0.00 0.00 74 1010.2
20260509151523 13 208 6.4 9.7 0.00 0.00 0.00 75 1010.2
20260509150524 13 225 4.8 9.7 0.00 0.00 0.00 77 1010.2
20260509145624 12 225 8.0 9.7 0.00 0.00 0.00 77 1010.3
20260509145525 12 225 8.0 8.0 0.00 0.00 0.00 76 1010.3
20260509144623 12 262 8.0 11.3 0.00 0.00 0.00 77 1010.2
20260509143642 12 258 6.4 8.0 0.00 0.00 0.00 78 1010.2
20260509141624 12 225 4.8 6.4 0.00 0.00 0.00 77 1010.5
20260509140625 12 261 8.0 11.3 0.00 0.00 0.00 79 1010.5
20260509135625 12 254 6.4 9.7 0.00 0.00 0.00 81 1010.5
20260509134623 12 270 4.8 6.4 0.00 0.00 0.00 82 1010.5
20260509134524 12 253 3.2 6.4 0.00 0.00 0.00 82 1010.4
20260509133623 12 292 0.0 1.6 0.00 0.00 0.00 84 1010.4
20260509131624 11 227 9.7 14.5 0.00 0.00 0.00 87 1010.8
20260509131523 11 231 4.8 8.0 0.00 0.00 0.00 87 1010.9
20260509125524 10 229 9.7 16.1 0.00 0.03 0.00 90 1010.8
20260509124524 10 67 0.0 0.0 0.00 0.03 0.00 91 1010.9
20260509123525 9 67 3.2 6.4 0.00 0.03 0.00 90 1010.8
20260509122543 9 67 1.6 3.2 0.00 0.03 0.00 92 1010.8
20260509121541 8 161 0.0 3.2 0.00 0.03 0.00 92 1011.0
20260509120526 8 180 1.6 1.6 0.00 0.03 0.00 93 1011.0
20260509115623 8 157 0.0 1.6 0.00 0.05 0.00 93 1011.0
20260509115523 8 157 0.0 3.2 0.00 0.05 0.00 94 1011.0
20260509113525 7 157 0.0 0.0 0.00 0.15 0.00 94 1010.8
20260509112524 7 225 0.0 0.0 0.00 0.15 0.00 94 1010.9
20260509111525 7 225 0.0 1.6 0.00 0.15 0.00 93 1011.0
20260509110623 6 157 0.0 0.0 0.00 0.15 0.00 94 1010.8
20260509105625 6 157 0.0 0.0 0.00 0.15 0.00 92 1010.7
20260509104624 6 157 0.0 0.0 0.00 0.18 0.00 92 1010.8
20260509103624 6 157 0.0 0.0 0.00 0.23 0.00 92 1010.7
20260509102723 6 157 0.0 0.0 0.00 0.25 0.00 93 1010.7
20260509101726 6 157 0.0 0.0 0.00 0.28 0.00 93 1010.7
20260509100823 6 157 0.0 0.0 0.00 0.28 0.00 93 1010.6
20260509095823 6 157 0.0 0.0 0.00 0.28 0.00 92 1010.7
20260509095723 6 157 0.0 0.0 0.00 0.28 0.00 92 1010.7
20260509094740 6 157 0.0 0.0 0.00 0.28 0.00 92 1010.7
20260509093724 5 157 0.0 0.0 0.00 0.28 0.00 92 1010.6
20260509092724 5 157 0.0 0.0 0.00 0.30 0.00 91 1010.6
20260509090725 5 67 0.0 0.0 0.00 0.30 0.00 91 1010.6
20260509085823 5 67 0.0 0.0 0.00 0.30 0.00 90 1010.7
20260509084923 5 45 0.0 0.0 0.00 0.30 0.00 89 1010.6
20260509083023 5 181 0.0 0.0 0.00 0.30 0.00 89 1010.7
20260509082024 5 180 0.0 0.0 0.00 0.30 0.00 89 1010.7
20260509081023 5 180 0.0 0.0 0.00 0.30 0.00 88 1010.8
20260509080024 5 180 0.0 0.0 0.00 0.30 0.00 87 1010.8
20260509075923 5 180 0.0 0.0 0.00 0.30 0.00 87 1010.8
20260509075823 5 180 0.0 0.0 0.00 0.30 0.00 87 1010.9
20260509074824 5 180 0.0 0.0 0.00 0.33 0.00 87 1011.0
20260509073826 5 180 0.0 0.0 0.00 0.33 0.00 87 1011.2
20260509072823 5 180 0.0 1.6 0.00 0.33 0.00 86 1011.1
20260509071824 5 67 1.6 1.6 0.00 0.33 0.00 86 1011.3
20260509070824 4 67 0.0 0.0 0.00 0.33 0.00 86 1011.3
20260509065823 3 67 0.0 0.0 0.00 0.33 0.00 86 1011.2
20260509064824 3 67 0.0 0.0 0.00 0.33 0.00 86 1011.2
20260509063923 3 67 0.0 0.0 0.00 0.33 0.00 85 1011.2
20260509061925 3 157 0.0 1.6 0.00 0.33 0.00 85 1011.6
20260509061024 3 157 0.0 0.0 0.00 0.33 0.00 85 1011.8
20260509060022 3 157 0.0 0.0 0.00 0.33 0.00 84 1012.0
20260509055023 3 157 0.0 0.0 0.00 0.33 0.00 83 1012.0
20260509054023 3 157 0.0 0.0 0.00 0.33 0.00 82 1012.1
20260509053026 3 157 0.0 0.0 0.00 0.33 0.00 81 1012.2
20260509052025 3 157 0.0 0.0 0.00 0.33 0.00 81 1012.3
20260509050123 3 157 0.0 0.0 0.00 0.33 0.00 79 1012.6
20260509044223 3 157 0.0 0.0 0.00 0.33 0.00 80 1012.7
20260509043322 3 157 0.0 0.0 0.00 0.33 0.00 81 1012.8
20260509042422 3 157 0.0 0.0 0.00 0.33 0.00 79 1012.8
20260509041424 3 157 0.0 0.0 0.00 0.33 0.00 80 1013.0
20260509040439 3 157 0.0 0.0 0.00 0.33 0.00 81 1013.0
20260509035527 3 157 0.0 0.0 0.00 0.33 0.33 80 1013.0
20260509034530 3 157 0.0 0.0 0.00 0.33 0.33 80 1013.1
20260509033627 3 157 0.0 0.0 0.00 0.33 0.33 79 1013.1
20260509032631 3 157 0.0 0.0 0.00 0.33 0.33 80 1013.3
20260509031630 3 157 0.0 0.0 0.00 0.33 0.33 78 1013.5
20260509030629 3 157 0.0 0.0 0.00 0.33 0.33 77 1013.6
20260509025727 3 157 0.0 0.0 0.00 0.33 0.33 77 1013.6
20260509025628 3 157 0.0 0.0 0.00 0.33 0.33 77 1013.6
20260509023729 3 225 0.0 0.0 0.00 0.33 0.33 80 1013.4
20260509022728 3 247 0.0 0.0 0.00 0.33 0.33 80 1013.4
20260509020845 3 247 0.0 0.0 0.00 0.33 0.33 80 1013.5
20260509015930 4 247 0.0 0.0 0.00 0.33 0.33 77 1013.4
20260509015027 5 247 0.0 0.0 0.00 0.33 0.33 75 1013.3
20260509014030 5 247 0.0 0.0 0.00 0.33 0.33 74 1013.4
20260509013030 6 247 0.0 0.0 0.00 0.33 0.33 69 1013.4
20260509012029 6 247 0.0 0.0 0.00 0.33 0.33 65 1013.4
20260509010028 8 247 0.0 0.0 0.00 0.33 0.33 56 1013.5
20260509005028 8 247 1.6 3.2 0.00 0.33 0.33 54 1013.5
20260509003028 9 270 0.0 0.0 0.00 0.33 0.33 48 1013.2
20260509001030 10 270 1.6 1.6 0.00 0.33 0.33 43 1013.3
20260509000128 10 270 0.0 1.6 0.00 0.33 0.33 41 1013.1
20260508235128 11 285 4.8 6.4 0.00 0.33 0.33 41 1013.1
20260508234227 11 270 6.4 8.0 0.00 0.33 0.33 40 1013.4
20260508233129 11 247 6.4 8.0 0.00 0.33 0.33 38 1013.3
20260508232228 11 270 6.4 6.4 0.00 0.33 0.33 36 1013.2
20260508231230 11 247 12.9 17.7 0.00 0.33 0.33 37 1013.4
20260508230228 11 277 11.3 14.5 0.00 0.33 0.33 36 1013.1
20260508225230 11 274 11.3 12.9 0.00 0.33 0.33 36 1013.3
20260508224228 11 270 17.7 20.9 0.00 0.33 0.33 36 1013.4
20260508223227 12 285 12.9 14.5 0.00 0.33 0.33 33 1013.3
20260508222229 12 270 17.7 22.5 0.00 0.33 0.33 31 1013.4
20260508221228 12 264 16.1 19.3 0.00 0.33 0.33 31 1013.3
20260508220229 12 258 11.3 11.3 0.00 0.33 0.33 31 1013.4
20260508220128 12 247 12.9 14.5 0.00 0.33 0.33 32 1013.4
20260508215129 12 270 14.5 17.7 0.00 0.33 0.33 30 1013.2
20260508214227 12 244 6.4 9.7 0.00 0.33 0.33 30 1013.2
20260508213228 12 270 16.1 20.9 0.00 0.33 0.33 30 1013.2